Location: Rancho Del Sol Observatory
(38.7214°N, 120.6350°W)
Time: 12:59:46
(UTC-08:00)

Courier 1B Rocket - Pass Details

Date: 27 January 2020
Orbit: 920 x 1202 km, 28.2° (Epoch: 27 February)

Event Time Altitude Azimuth Distance (km) Brightness Sun altitude
Rises 11:32:38 0° 244° (WSW) 3,996 8.4 32.0°
Reaches altitude 10° 11:35:47 10° 235° (SW) 2,997 7.9 32.1°
Maximum altitude 11:42:14 34° 174° (S) 1,704 10.0 32.3°
Drops below altitude 10° 11:48:18 10° 112° (ESE) 2,813 7.9 32.5°
Sets 11:51:09 0° 103° (ESE) 3,720 8.3 32.6°
